Regional Weather Roundup
Issued by NWS

Home | Current Version | Previous Version | Text Only | Print | Product List | Glossary On
Versions: 1 2 3 4 5 6 7 8 9 10 11 12 13 14 15 16 17 18 19 20 21 22 23 24 25 26 27 28 29 30 31 32 33 34 35 36 37 38 39 40 41 42 43 44 45 46 47 48 49 50
000
ASUS43 KDMX 291407
RWRIA

WEATHER ROUNDUP FOR IOWA
NATIONAL WEATHER SERVICE DES MOINES IA
800 AM CST MON DEC 29 2014

NOTE: "FAIR" INDICATES FEW OR NO CLOUDS BELOW 12,000 FEET WITH NO
SIGNIFICANT WEATHER AND/OR OBSTRUCTIONS TO VISIBILITY.

* - THESE STATIONS ARE NOT NWS STATIONS...THUS NOT UNDER NWS
QUALITY CONTROL.  THEY ALSO DO NOT REPORT WEATHER SUCH
AS PRECIPITATION OR FOG.

IAZ001>003-012>014-020>022-031>034-043>046-291500-
   NORTHWEST IOWA

CITY           SKY/WX    TMP DP  RH WIND       PRES   REMARKS
CARROLL *      CLOUDY    19  16  86 NE15      30.38R WCI   5
CHEROKEE *     LGT SNOW  16  12  86 NE10      30.43R WCI   3
DENISON *      LGT SNOW  19  16  86 NE17G24   30.35R WCI   4
LE MARS *      LGT SNOW  14  10  85 NE13      30.45R WCI   0
ORANGE CITY *  CLOUDY    10   7  85 NE14      30.42R WCI  -5
SHELDON *      CLOUDY     9   3  78 NE14G22   30.42R WCI  -8
SIOUX CITY     LGT SNOW  17  12  80 NE10      30.43R WCI   5
SPENCER        PTCLDY    10   3  73 N15       30.43R WCI  -7
STORM LAKE *   LGT SNOW  16  12  86 NE15G23   30.39R WCI   1
$$

IAZ055>058-069>071-079>083-090>094-291500-
   SOUTHWEST IOWA

CITY           SKY/WX    TMP DP  RH WIND       PRES   REMARKS
ATLANTIC *     CLOUDY    23  21  93 NE14      30.34R WCI  11
AUDUBON *      LGT SNOW  19  14  79 NE13G21   30.35R WCI   7
CLARINDA *     CLOUDY    28  25  86 NE10      30.32R WCI  19
COUNCIL BLFS * FLURRIES  23  21  93 NE14      30.32R WCI  11
CRESTON *      CLOUDY    25  25 100 NE13G18   30.30R WCI  13
HARLAN  *      CLOUDY    21  21 100 NE17      30.38R WCI   7
LAMONI         CLOUDY    25  22  88 NE8       30.29R WCI  16
RED OAK *      MIX PCPN  27  25  93 NE12      30.32R WCI  16
SHENANDOAH *   CLOUDY    27  25  93 NE14      30.32R WCI  15
$$

IAZ047>049-059>061-072>074-084-291500-
   CENTRAL IOWA

CITY           SKY/WX    TMP DP  RH WIND       PRES   REMARKS
AMES           LGT SNOW  21  16  81 N12       30.38R WCI   9
ANKENY *       MIX PCPN  23  21  93 N9        30.37R WCI  13
CHARITON *     CLOUDY    27  23  86 NE9       30.32R WCI  17
DES MOINES     CLOUDY    25  20  81 NE14      30.36R WCI  13
GRINNELL*      CLOUDY    25  23  93 NE10      30.35R WCI  15
KNOXVILLE *    CLOUDY    27  23  86 NE8       30.33R WCI  18
MARSHALLTOWN   CLOUDY    21  18  88 N14       30.36R WCI   8
PELLA *        CLOUDY    27  25  93 NE5       30.36R WCI  21
PERRY *        FLURRIES  21  19  93 N12       30.38R WCI   9
$$

IAZ004>006-015-016-023>025-035-036-291500-
   NORTH CENTRAL IOWA

CITY           SKY/WX    TMP DP  RH WIND       PRES   REMARKS
ALGONA *       CLOUDY    12   5  73 NE18      30.43R WCI  -5
CLARION *      CLOUDY    16  12  86 NE10      30.41R WCI   3
ESTHERVILLE    PTCLDY     7   3  84 N13       30.44R WCI  -9
FORT DODGE *   CLOUDY    16  10  79 N9        30.40R WCI   4
MASON CITY     CLOUDY    13   6  74 N12       30.43R WCI  -1
FOREST CITY *  CLOUDY    14   5  67 N8        30.42R WCI   3
IOWA FALLS *   FLURRIES  18  14  86 N10       30.39R WCI   6
$$

IAZ007>011-017>019-026>030-037>042-050>054-066-291500-
   NORTHEAST IOWA

CITY           SKY/WX    TMP DP  RH WIND       PRES   REMARKS
CEDAR RAPIDS   LGT SNOW  25  22  88 N10       30.35R FOG     WCI  15
CHARLES CITY * CLOUDY    14   9  79 N13       30.41R WCI   0
CLINTON *      CLOUDY    25  18  74 NE9       30.37R WCI  15
DECORAH *      CLOUDY    14   9  79 N7        30.39R WCI   4
DUBUQUE        CLOUDY    19  14  81 NE10      30.35R WCI   7
MONTICELLO *   CLOUDY    23  19  86 MISG      30.37R
OELWEIN *      LGT SNOW  19  16  86 N10       30.38R WCI   8
WATERLOO       LGT SNOW  19  16  88 N12       30.39R FOG     WCI   7
$$

IAZ064-065-067-068-078-291500-
   EAST CENTRAL IOWA

CITY           SKY/WX    TMP DP  RH WIND       PRES   REMARKS
DAVENPORT      CLOUDY    25  21  85 NE9       30.35R WCI  15
IOWA CITY      CLOUDY    27  22  81 NE8       30.37R WCI  19
MT. PLEASANT * CLOUDY    25  21  86 N7        30.34R WCI  17
MUSCATINE *    CLOUDY    27  23  86 NE8       30.36R WCI  18
QUAD CITIES    MOCLDY    25  20  81 E7        30.35R WCI  17
$$

IAZ062-063-075>077-085>089-095>099-291500-
   SOUTHEAST IOWA

CITY           SKY/WX    TMP DP  RH WIND       PRES   REMARKS
BURLINGTON     CLOUDY    25  21  85 NE6       30.32R WCI  18
FAIRFIELD *    CLOUDY    27  19  74 NE7       30.34R WCI  19
FORT MADISON * CLOUDY    27  25  93 NE5       30.33R WCI  21
KEOKUK *       CLOUDY    25  25 100 N5        30.31R WCI  19
OSKALOOSA *    CLOUDY    27  23  86 NE7       30.33R WCI  19
CENTERVILLE *  MOCLDY    27  23  86 NE7       30.32R WCI  19
OTTUMWA        CLOUDY    26  20  77 NE10      30.32R WCI  16
WASHINGTON *   CLOUDY    27  25  93 NE7       30.35R WCI  19
$$

ABBREVIATIONS USED IN REMARKS
   TC - TEMPERATURES IN CELSIUS
  WCI - WIND CHILL INDEX
   HX - HEAT INDEX
  VSB - VISIBILITY
$$



USA.gov is the U.S. government's official web portal to all federal, state and local government web resources and services.